This demonstration page uses our WeatherBlox Daily Observations layout. Learn more.

36.17497, -115.13722

Hourly Observations for February 8, 2016

Temp ( °F °C ) Dew Point ( °F °C ) Humidity (%) Winds ( mph kmh ) Pressure ( in mb ) Visibility ( mi km ) Precip ( " mm )
12:53 am 00:53 Clear 55 12.8 22 -5.6 28 28 N 16 26 30.44 1031 10 16.0934 0 0
1:53 am 01:53 Clear 54 12.2 22 -5.6 29 29 N 13 20 30.45 1031 10 16.0934 0 0
2:53 am 02:53 Clear 53 11.7 22 -5.6 30 30 N 16 26 30.46 1032 10 16.0934 0 0
3:53 am 03:53 Clear 51 10.6 23 -5 33 33 N 17 28 30.46 1032 10 16.0934 0 0
4:53 am 04:53 Clear 51 10.6 23 -5 33 33 N 12 19 30.47 1032 10 16.0934 0 0
5:53 am 05:53 Clear 50 10 24 -4.4 36 36 N 16 26 30.48 1032 10 16.0934 0 0
6:53 am 06:53 Sunny 50 10 24 -4.4 36 36 N 17 28 30.49 1032 10 16.0934 0 0
7:53 am 07:53 Sunny 53 11.7 24 -4.4 32 32 N 12 19 30.5 1033 10 16.0934 0 0
8:53 am 08:53 Sunny 56 13.3 24 -4.4 29 29 N 10 17 30.51 1033 10 16.0934 0 0
9:53 am 09:53 Sunny 61 16.1 23 -5 23 23 N 13 20 30.49 1033 10 16.0934 0 0
10:53 am 10:53 Sunny 63 17.2 23 -5 22 22 NE 9 15 30.47 1032 10 16.0934 0 0
11:53 am 11:53 Sunny 64 17.8 24 -4.4 22 22 E 6 9 30.44 1031 10 16.0934 0 0
12:53 pm 12:53 Sunny 68 20 24 -4.4 19 19 VRB 5 7 30.39 1029 10 16.0934 0 0
1:53 pm 13:53 Sunny 71 21.7 23 -5 16 16 ENE 7 11 30.36 1028 10 16.0934 0 0
2:53 pm 14:53 Sunny 72 22.2 24 -4.4 17 17 E 8 13 30.35 1028 10 16.0934 0 0
3:53 pm 15:53 Sunny 73 22.8 24 -4.4 16 16 ENE 6 9 30.35 1028 10 16.0934 0 0
4:53 pm 16:53 Sunny 72 22.2 24 -4.4 17 17 ENE 3 6 30.35 1028 10 16.0934 0 0
5:53 pm 17:53 Clear 69 20.6 25 -3.9 19 19 N 10 17 30.35 1028 10 16.0934 0 0
6:53 pm 18:53 Clear 66 18.9 26 -3.3 22 22 N 9 15 30.37 1028 10 16.0934 0 0
7:53 pm 19:53 Clear 64 17.8 26 -3.3 24 24 N 10 17 30.37 1029 10 16.0934 0 0
8:53 pm 20:53 Clear 61 16.1 27 -2.8 27 27 N 9 15 30.38 1029 10 16.0934 0 0
9:53 pm 21:53 Clear 60 15.6 26 -3.3 27 27 N 14 22 30.38 1029 10 16.0934 0 0
10:53 pm 22:53 Clear 59 15 26 -3.3 28 28 VRB 3 6 30.39 1029 10 16.0934 0 0
11:53 pm 23:53 Clear 55 12.8 26 -3.3 33 33 NNW 6 9 30.4 1030 10 16.0934 0 0

Powered by AerisWeather